Regional Weather Roundup
Issued by NWS

Home | Current Version | Previous Version | Text Only | Print | Product List | Glossary Off
Versions: 1 2 3 4 5 6 7 8 9 10 11 12 13 14 15 16 17 18 19 20 21 22 23 24 25 26 27 28 29 30 31 32 33 34 35 36 37 38 39 40 41 42 43 44 45 46 47 48 49 50

000
ASUS45 KABQ 151410
RWRNM
NEW MEXICO REGIONAL WEATHER ROUNDUP
NATIONAL WEATHER SERVICE ALBUQUERQUE NM
700 AM MST FRI DEC 15 2017

NOTE: "FAIR" MEANS FEW OR NO CLOUDS BELOW 12,000 FEET AGL WITH NO
       SIGNIFICANT WEATHER OR OBSTRUCTIONS TO VISION.

      THIS PRODUCT IS RELEASED AS TWO VERSIONS.  ONE VERSION NEAR
      THE TOP OF THE HOUR CONTAINING PRELIMINARY DATA FROM ALBUQUERQUE
      AND OTHER STATIONS.  A FINAL VERSION WITH ADDITIONAL DATA IS
      ISSUED ABOUT 10 MINUTES AFTER THE HOUR.

NMZ501-503-504-510>518-151500-
NORTHWEST PLATEAU/NORTHCENTRAL MOUNTAINS

CITY           SKY/WX    TMP DP  RH WIND       PRES   REMARKS
FARMINGTON     FAIR      13  10  88 E7        30.33R WCI   3
LOS ALAMOS     FAIR      24  15  67 N6        30.30S WCI  17
SANTA FE       FAIR      19  14  81 NE9       30.29F WCI   8
TAOS           FAIR       5   0  79 NW7       30.35S WCI  -7
ANGEL FIRE     FAIR       2  -1  88 CALM      30.30S

$$
NMZ402-403-502-505>509-151500-
WESTCENTRAL MOUNTAINS/SOUTHWEST MOUNTAINS

CITY           SKY/WX    TMP DP  RH WIND       PRES   REMARKS
GALLUP         FAIR       5   1  83 CALM      30.34S
GRANTS         FAIR       9   4  80 NW3       30.35S
SILVER CITY    FAIR      16   9  74 N6        30.31R WCI   7

$$
NMZ407-409-411-412-151500-
SOUTHERN DESERTS

CITY           SKY/WX    TMP DP  RH WIND       PRES   REMARKS
DEMING         FAIR      27  13  55 NE7       30.33R WCI  19
LAS CRUCES     FAIR      23  14  67 NW3       30.34R
HOLLOMAN AFB   FAIR      23  11  60 S5        30.36R WCI  17
ALAMOGORDO     FAIR      23  14  68 SE5       30.34R WCI  17
T OR C         FAIR      30  14  51 NW6       30.33R WCI  24

$$
NMZ519>523-151500-
CENTRAL VALLEYS/CENTRAL HIGHLANDS

CITY           SKY/WX    TMP DP  RH WIND       PRES   REMARKS
ALBUQUERQUE    FAIR      25  15  66 N6        30.34S WCI  18
DOUBLE EAGLE   CLEAR     19  12  73 NW7       30.34R WCI  10
MORIARTY ARPT  FAIR       6   2  85 N3        30.31F
CLINES CORNERS FAIR      18  15  88 NW18      30.25F WCI   2
BELEN          FAIR      18  10  73 NW6       30.35S WCI   9
SOCORRO        FAIR      22  12  65 N8        30.34R WCI  12

$$
NMZ524>526-539-540-151500-
SOUTHCENTRAL MOUNTAINS

CITY           SKY/WX    TMP DP  RH WIND       PRES   REMARKS
RUIDOSO        FAIR      23  14  68 W5        30.31R WCI  17

$$
NMZ527>531-151500-
NORTHEAST HIGHLANDS/NORTHEAST PLAINS

CITY           SKY/WX    TMP DP  RH WIND       PRES   REMARKS
LAS VEGAS      FAIR      15  13  91 SW5       30.22F WCI   8
RATON          FAIR      10   6  84 NE7       30.20F WCI  -1
CLAYTON        FAIR      24  19  81 W14       30.17F WCI  12

$$
NMZ532>537-151500-
EASTCENTRAL PLAINS

CITY           SKY/WX    TMP DP  RH WIND       PRES   REMARKS
SANTA ROSA     FAIR      18  15  88 SW5       30.28F WCI  11
TUCUMCARI      FAIR      20  18  92 SW7       30.25F WCI  11
CANNON AFB     FAIR      28  28 100 W8        30.30S WCI  20
CLOVIS AIRPORT FAIR      20  19  96 W10       30.30S WCI   9

$$
NMZ028-029-538-151500-
SOUTHEAST PLAINS

CITY           SKY/WX    TMP DP  RH WIND       PRES   REMARKS
ROSWELL        FAIR      20  14  77 CALM      30.35S
ARTESIA        FAIR      25  16  68 CALM      30.38R
CARLSBAD       FAIR      24  22  91 W7        30.36R WCI  16
HOBBS          CLEAR     23  21  93 W9        30.35R WCI  13


$$




USA.gov is the U.S. government's official web portal to all federal, state and local government web resources and services.